This is the latest recevied weather packets stored in our database for station/object KC2G. If no packets are shown the sender has not sent any weather packets the latest 10 day(s).
| Time | Temp. | Humidity | Pressure | Rain* | Wind** | Luminosity | Snow |
|---|---|---|---|---|---|---|---|
| 1777721456 | 9.44° C | 98% | 1012.6 hPa | 0 mm | 0 m/s | - | - |
| 1777720554 | 8.89° C | 99% | 1012.4 hPa | 0 mm | 0 m/s | - | - |
| 1777719655 | 8.33° C | 99% | 1012.1 hPa | 0 mm | 0 m/s | - | - |
| 1777718754 | 7.78° C | 99% | 1012 hPa | 0 mm | 0 m/s | - | - |
| 1777717855 | 8.33° C | 99% | 1011.9 hPa | 0 mm | 0 m/s | - | - |
| 1777716955 | 8.33° C | 99% | 1011.9 hPa | 0 mm | 0 m/s | - | - |
| 1777716056 | 8.33° C | 99% | 1011.7 hPa | 0 mm | 0 m/s | - | - |
| 1777715155 | 8.89° C | 99% | 1011.4 hPa | 0 mm | 0 m/s | - | - |
| 1777714256 | 8.89° C | 100% | 1011.7 hPa | 0 mm | 0 m/s | - | - |
| 1777713355 | 8.89° C | 98% | 1011.9 hPa | 0 mm | 0 m/s | - | - |
| 1777712457 | 9.44° C | 97% | 1011.8 hPa | 0 mm | 0 m/s | - | - |
| 1777711618 | 9.44° C | 96% | 1011.6 hPa | 0 mm | 0 m/s | - | - |
| 1777711555 | 9.44° C | 96% | 1011.6 hPa | 0 mm | 0 m/s | - | - |
| 1777710862 | 9.44° C | 94% | 1011.6 hPa | 0 mm | 0 m/s | - | - |
| 1777710655 | 9.44° C | 95% | 1011.7 hPa | 0 mm | 0 m/s | - | - |
| 1777709755 | 9.44° C | 94% | 1011.6 hPa | 0 mm | 0 m/s | - | - |
| 1777708928 | 9.44° C | 95% | 1011.3 hPa | 0 mm | 0 m/s | - | - |
| 1777708855 | 9.44° C | 93% | 1011.4 hPa | 0 mm | 0 m/s | - | - |
| 1777707955 | 9.44° C | 93% | 1011.3 hPa | 0 mm | 0 m/s | - | - |
| 1777707056 | 9.44° C | 95% | 1011.3 hPa | 0 mm | 0 m/s | - | - |
| 1777706154 | 9.44° C | 99% | 1011.5 hPa | 0 mm | 0.45 m/s, 325° | - | - |
| 1777705255 | 10° C | 97% | 1011.8 hPa | 0 mm | 0 m/s | - | - |
| 1777704355 | 10° C | 97% | 1011.6 hPa | 0 mm | 0 m/s | - | - |
| 1777703456 | 10° C | 97% | 1011.5 hPa | 0 mm | 0 m/s | - | - |
| 1777702555 | 10° C | 97% | 1011.5 hPa | 0 mm | 0 m/s | - | - |
* Rain latest hour (hover to see other rain measurements)
** Current wind speed in m/s (hover to see current wind gust speed)